Location: Bazugues
(43.4465°N, 0.3432°E)
Time: 10:52:55
(UTC+00:00)

NOSS 3-4 (C) - Pass Details

Date: 12 January 2026
Orbit: 773 x 1438 km, 63.4° (Epoch: 26 December)

Event Time Altitude Azimuth Distance (km) Brightness Sun altitude
Rises 19:20:22 0° 237° (WSW) 3,242 7.2 -27.7°
Reaches altitude 10° 19:22:48 10° 244° (WSW) 2,335 6.3 -28.1°
Maximum altitude 19:27:51 43° 316° (NW) 1,139 4.0 -29.1°
Enters shadow 19:29:03 38° 348° (NNW) 1,258 4.1 -29.3°
